Portland Hillsboro, OR

5:18 AM PDT on June 28, 2017 (GMT -0700)
Portland-Hillsboro

Weather History for KHIO - February, 2013

Change the Weather History Date:

Thursday, February 21, 2013

  Actual Average Record
Temperature  
Mean Temperature 40 °F 43 °F  
Max Temperature 45 °F 52 °F 64 °F (1958)
Min Temperature 34 °F 34 °F 24 °F (1957)
Degree Days  
Heating Degree Days 25 22  
Month to date heating degree days 477 480  
Since 1 July heating degree days 3219 3373  
Cooling Degree Days 0 0  
Month to date cooling degree days 0 0  
Year to date cooling degree days 0 0  
Moisture  
Dew Point 37 °F    
Average Humidity 85    
Maximum Humidity 100    
Minimum Humidity 70    
Precipitation  
Precipitation 0.03 in 0.13 in 1.26 in (1936)
Month to date precipitation 0.77 3.43  
Year to date precipitation 2.24 9.49  
Snow  
Snow 0.00 in - - ()
Month to date snowfall 0.0  
Since 1 July snowfall 0.0  
Snow Depth 0.00 in    
Sea Level Pressure  
Sea Level Pressure 30.16 in    
Wind  
Wind Speed 6 mph (SSW)    
Max Wind Speed 15 mph    
Max Gust Speed 22 mph    
Visibility 9 miles    
Events Rain    
T = Trace of Precipitation, MM = Missing Value Source: NWS Daily Summary

Daily Weather History Graph

Daily Weather History Graph

Search for Another Location

Airport or City:

Trip Planner

Search our weather history database for the weather conditions in past years. The results will help you decide how hot, cold, wet, or windy it might be!

Date:

Astronomy

Feb. 21, 2013 Rise Set
Actual Time 7:03 AM PST 5:48 PM PST
Civil Twilight 6:33 AM PST 6:18 PM PST
Nautical Twilight 5:58 AM PST 6:52 PM PST
Astronomical Twilight 5:24 AM PST 7:26 PM PST
Moon 2:00 PM PST (2/21) 4:19 AM PST (2/21)
Length of Visible Light 11h 44m
Length of Day
10h 44m
Waxing Gibbous, 84% of the Moon is Illuminated
Feb 21
Waxing Gibbous
Feb 25
Full
Mar 4
Last Quarter
Mar 11
New
Mar 19
First Quarter

Hourly Weather History & Observations

Time (PST) Temp. Windchill Dew Point Humidity Pressure Visibility Wind Dir Wind Speed Gust Speed Precip Events Conditions
12:53 AM 36.0 °F - 35.1 °F 97% 30.11 in 10.0 mi Calm Calm - N/A   Overcast
1:53 AM 37.0 °F 34.5 °F 36.0 °F 96% 30.14 in 10.0 mi NW 3.5 mph - 0.00 in Rain Light Rain
2:08 AM 37.0 °F - 36.0 °F 96% 30.13 in 9.0 mi Calm Calm - 0.00 in Rain Light Rain
2:23 AM 36.0 °F - 35.1 °F 97% 30.13 in 10.0 mi Calm Calm - 0.00 in   Overcast
2:31 AM 37.0 °F - 36.0 °F 96% 30.14 in 10.0 mi Calm Calm - 0.00 in   Overcast
2:53 AM 37.0 °F - 36.0 °F 96% 30.14 in 10.0 mi Calm Calm - 0.00 in   Overcast
3:53 AM 37.0 °F - 36.0 °F 96% 30.15 in 10.0 mi Calm Calm - 0.01 in   Overcast
4:53 AM 34.0 °F - 34.0 °F 100% 30.16 in 3.0 mi Calm Calm - 0.00 in   Mostly Cloudy
5:13 AM 35.1 °F - 34.0 °F 96% 30.15 in 3.0 mi Calm Calm - N/A   Partly Cloudy
5:53 AM 35.1 °F - 34.0 °F 96% 30.17 in 5.0 mi Calm Calm - N/A   Overcast
6:53 AM 36.0 °F - 35.1 °F 97% 30.17 in 6.0 mi Calm Calm - N/A   Overcast
7:53 AM 37.0 °F 33.3 °F 35.1 °F 93% 30.19 in 5.0 mi North 4.6 mph - N/A   Overcast
8:53 AM 39.9 °F - 37.0 °F 89% 30.19 in 10.0 mi Calm Calm - 0.00 in   Overcast
9:53 AM 41.0 °F 39.0 °F 39.0 °F 93% 30.18 in 10.0 mi West 3.5 mph - N/A   Overcast
10:24 AM 43.0 °F 36.8 °F 37.0 °F 80% 30.18 in 10.0 mi SSW 11.5 mph - N/A   Overcast
10:53 AM 44.1 °F 39.0 °F 37.0 °F 76% 30.19 in 10.0 mi South 9.2 mph - N/A   Overcast
11:53 AM 44.1 °F 38.1 °F 37.9 °F 79% 30.19 in 8.0 mi SSW 11.5 mph - 0.01 in Rain Light Rain
12:53 PM 44.1 °F 38.6 °F 37.0 °F 76% 30.17 in 10.0 mi South 10.4 mph - 0.01 in   Overcast
1:53 PM 45.0 °F 38.5 °F 36.0 °F 71% 30.15 in 10.0 mi South 13.8 mph - N/A   Overcast
2:53 PM 45.0 °F 38.5 °F 37.0 °F 74% 30.14 in 10.0 mi South 13.8 mph - N/A   Overcast
3:53 PM 44.1 °F 39.0 °F 39.0 °F 82% 30.14 in 10.0 mi South 9.2 mph - 0.00 in Rain Light Rain
4:31 PM 44.1 °F 37.7 °F 37.9 °F 79% 30.14 in 10.0 mi SSW 12.7 mph - 0.00 in Rain Light Rain
4:53 PM 44.1 °F 37.7 °F 37.9 °F 79% 30.14 in 10.0 mi South 12.7 mph - 0.00 in   Overcast
5:53 PM 44.1 °F 38.6 °F 37.9 °F 79% 30.15 in 10.0 mi South 10.4 mph - 0.00 in   Overcast
6:53 PM 43.0 °F 38.8 °F 37.9 °F 82% 30.17 in 10.0 mi SSW 6.9 mph - N/A   Overcast
7:53 PM 42.1 °F 39.2 °F 37.9 °F 85% 30.16 in 10.0 mi South 4.6 mph - N/A   Mostly Cloudy
8:53 PM 42.1 °F 37.7 °F 37.9 °F 85% 30.15 in 10.0 mi South 6.9 mph - N/A   Overcast
9:53 PM 42.1 °F 37.7 °F 37.9 °F 85% 30.18 in 10.0 mi SSW 6.9 mph - N/A   Overcast
11:53 PM 42.1 °F 38.4 °F 39.0 °F 89% 30.17 in 10.0 mi South 5.8 mph - N/A   Overcast